Location: Unspecified
(20.0000°S, 0.0000°E)
Time: 21:10:31
(UTC+00:00)

Tiangong 2 - Visible Passes

Search period start: 21 May 2019 00:00
Search period end: 31 May 2019 00:00
Orbit: 379 x 387 km, 42.8° (Epoch: 21 May)

Date Brightness Start Highest point End Pass type
(mag) Time Alt. Az. Time Alt. Az. Time Alt. Az.
21 May 4.1 05:11:12 10° N 05:13:24 17° NE 05:15:36 10° E visible
22 May 1.0 05:46:45 10° WNW 05:49:54 67° SW 05:53:06 10° SE visible
23 May 2.2 04:49:38 41° NNE 04:49:56 42° NE 04:52:59 10° ESE visible
24 May 2.1 05:26:06 26° SW 05:26:35 27° SW 05:29:23 10° SSE visible
